• MPC Preparation (Info)

  • MPEC 2000-L43 : 2000 LY27

    The following Minor Planet Electronic Circular may be linked-to from your own Web pages, but must not otherwise be redistributed electronically.

    A form allowing access to any MPEC is at the bottom of this page.


    Read MPEC 2000-L42 Read MPEC 2000-L44


    M.P.E.C. 2000-L43                                Issued 2000 June 13, 16:57 UT
    
         The Minor Planet Electronic Circulars contain information on unusual
             minor planets and routine data on comets.  They are published
       on behalf of Commission 20 of the International Astronomical Union by the
              Minor Planet Center, Smithsonian Astrophysical Observatory,
                              Cambridge, MA 02138, U.S.A.
    
                 Prepared using the Tamkin Foundation Computer Network
    
                 BMARSDEN@CFA.HARVARD.EDU or GWILLIAMS@CFA.HARVARD.EDU
              URL http://cfa-www.harvard.edu/iau/mpc.html  ISSN 1523-6714
    
                                       2000 LY27
    
    Observations:
         K00L27Y* C2000 06 07.23459 15 31 15.93 -25 41 27.4          17.2        704
         K00L27Y  C2000 06 07.24761 15 31 14.75 -25 41 13.2          17.6        704
         K00L27Y  C2000 06 07.26058 15 31 13.51 -25 40 58.4          17.2        704
         K00L27Y  C2000 06 07.27358 15 31 12.36 -25 40 42.8          17.4        704
         K00L27Y  C2000 06 10.15525 15 27 24.33 -24 47 17.9          17.6        704
         K00L27Y  C2000 06 10.18144 15 27 22.20 -24 46 50.8          17.9        704
         K00L27Y  C2000 06 10.19439 15 27 21.21 -24 46 36.4          17.7        704
         K00L27Y  C2000 06 10.20983 15 27 19.98 -24 46 19.2          18.2        704
         K00L27Y  C2000 06 10.87873 15 26 31.46 -24 34 15.0          16.3 R      046
         K00L27Y  C2000 06 10.88114 15 26 31.22 -24 34 12.5                      046
         K00L27Y  C2000 06 10.88239 15 26 31.20 -24 34 10.7                      046
         K00L27Y  C2000 06 10.88371 15 26 31.05 -24 34 08.9                      046
         K00L27Y  C2000 06 10.88527 15 26 30.92 -24 34 07.8          16.4 R      046
         K00L27Y  C2000 06 10.88686 15 26 30.78 -24 34 07.1          18.0 V      557
         K00L27Y SC2000 06 10.89510 15 26 30.23 -24 33 56.9                      557
         K00L27Y  C2000 06 10.90124 15 26 29.71 -24 33 50.1                      557
         K00L27Y  C2000 06 11.08162 15 26 16.76 -24 30 20.2                      860
         K00L27Y  C2000 06 11.09376 15 26 15.85 -24 30 08.1          18.3 V      860
         K00L27Y  C2000 06 11.10580 15 26 15.10 -24 29 57.0          17.6 V      860
         K00L27Y  C2000 06 11.17409 15 26 10.80 -24 28 55.2          17.4        704
         K00L27Y  C2000 06 11.18674 15 26 09.82 -24 28 42.2          17.2        704
         K00L27Y  C2000 06 11.18755 15 26 09.68 -24 28 39.9          18.4        719
         K00L27Y  C2000 06 11.19325 15 26 09.30 -24 28 34.4          17.0 R      858
         K00L27Y  C2000 06 11.19683 15 26 09.04 -24 28 30.7          16.9 R      858
         K00L27Y  C2000 06 11.19920 15 26 08.88 -24 28 28.1          17.2        704
         K00L27Y  C2000 06 11.19931 15 26 08.90 -24 28 28.9          18.9        719
         K00L27Y  C2000 06 11.20101 15 26 08.75 -24 28 26.4          16.9 R      858
         K00L27Y bC2000 06 11.27309 15 26 03.34 -24 27 07.4          18.4        853
         K00L27Y bC2000 06 11.27385 15 26 03.31 -24 27 06.1          18.6        853
         K00L27Y bC2000 06 11.27631 15 26 03.19 -24 27 04.5          18.7        853
         K00L27Y  C2000 06 12.36626 15 24 49.90 -24 07 29.0          16.6 R      467
         K00L27Y  C2000 06 12.36840 15 24 49.81 -24 07 27.0          16.8 R      467
         K00L27Y  C2000 06 12.36949 15 24 49.83 -24 07 25.8          16.8 R      467
         K00L27Y  C2000 06 12.37058 15 24 49.65 -24 07 24.9          16.6 R      467
         K00L27Y 1C2000 06 12.52184 15 24 39.34 -24 04 46.4          17.7 R      413
         K00L27Y 1C2000 06 12.52400 15 24 39.19 -24 04 44.2          17.9 R      413
         K00L27Y 1C2000 06 12.52650 15 24 39.01 -24 04 41.5          17.7 R      413
    
    Observer details:
    046 Klet.  Observers J. Ticha, M. Tichy.  0.57-m f/5.2 reflector
        + CCD.
    413 Siding Spring.  Observer R. H. McNaught.  1.0-m f/8 reflector + CCD.
    467 Auckland Observatory.  Observer I. P. Griffin.  0.5-m reflector + CCD.
    557 Ondrejov.  Observer P. Kusnirak.  0.65-m f/3.6 reflector + CCD.
    704 Lincoln Laboratory ETS, New Mexico.  Observers M. Blythe, F. Shelly,
        M. Bezpalko, M. Elowitz, R. Huber, L. Manguso.  Measurers J. Stuart,
        R. Sayer, J. B. Evans.  1.0-m f/2.15 reflector + CCD.
    719 Etscorn Observatory.  Observer D. A. Klinglesmith III.  0.355-m
        Schmidt-Cassegrain + CCD.
    853 Biosphere 2 Observatory.  Observer G. J. Garradd.  0.6-m f/8.0 reflector
        + CCD.
    858 Tebbutt Observatory, Edgewood.  Observer F. B. Zoltowski.  0.3-m f/3.3
        Schmidt-Cassegrain + CCD.
    860 Valinhos.  Observer P. R. Holvorcem.  0.36-m f/3.6 Schmidt-Cassegrain
        + CCD.
    
    Orbital elements:
    2000 LY27                                                            PHA 0.014
    Epoch 2000 June 5.0 TT = JDT 2451700.5                  Williams
    M 148.31056              (2000.0)            P               Q
    n   0.65806976     Peri.  185.09010     +0.00741783     -0.98757833
    a   1.3090455      Node   264.54818     +0.92293133     +0.06717466
    e   0.2152056      Incl.    9.07142     +0.38489316     -0.14204438
    P   1.50           H   16.9           G   0.15
    From 37 observations 2000 June 7-12.
    
    Ephemeris:
    2000 LY27                a,e,i = 1.31, 0.22, 9                   q = 1.0273
    Date    TT    R. A. (2000) Decl.     Delta      r     Elong.  Phase     V
    2000 06 05    15 34.58   -26 23.8    0.566    1.562   161.7    11.8    17.3
    2000 06 15    15 22.17   -23 22.3    0.610    1.572   149.6    19.1    17.8
    2000 06 25    15 15.96   -20 53.5    0.670    1.581   138.3    25.3    18.2
    2000 07 05    15 15.44   -19 04.2    0.742    1.587   128.3    30.2    18.6
    2000 07 15    15 19.74   -17 52.3    0.821    1.590   119.4    33.8    18.9
    2000 07 25    15 27.90   -17 10.7    0.907    1.591   111.6    36.4    19.2
    2000 08 04    15 39.19   -16 52.1    0.994    1.589   104.5    38.2    19.4
    2000 08 14    15 53.04   -16 49.6    1.083    1.585    98.2    39.2    19.6
    2000 08 24    16 08.99   -16 57.0    1.171    1.578    92.3    39.8    19.8
    2000 09 03    16 26.77   -17 09.5    1.257    1.569    86.9    39.9    20.0
    2000 09 13    16 46.12   -17 22.9    1.339    1.557    81.9    39.8    20.1
    2000 09 23    17 06.85   -17 33.4    1.418    1.543    77.1    39.3    20.2
    2000 10 03    17 28.84   -17 38.1    1.492    1.527    72.5    38.7    20.2
    2000 10 13    17 51.96   -17 34.2    1.559    1.508    68.2    37.9    20.3
    2000 10 23    18 16.08   -17 19.3    1.621    1.487    64.1    37.0    20.3
    2000 11 02    18 41.13   -16 51.6    1.676    1.464    60.2    36.0    20.3
    
    Gareth V. Williams           (C) Copyright 2000 MPC           M.P.E.C. 2000-L43
    

    Read MPEC 2000-L42 Read MPEC 2000-L44


    MPEC number:

    Enter an MPEC number in one of the following forms:

    • 1997-B01 (the full form)
    • J97B01 (the packed version of the full form)
    • B01 (the abbreviated form)